Home > Weather > Chelyabinsk > Past weeks

Flag for Russia Past Weather in Chelyabinsk, Russia — Yesterday and Last 2 Weeks

Now
54 °F

Rain showers. Fog.


Feels Like: 50 °F
Forecast: 53 / 65 °F
Wind: 13 mph from Northwest

Location: Chelyabinsk-Balandino

Current Time: Jun 29, 2016 at 5:22:10 AM

Latest Report: Jun 29, 2016 at 5:00 AM


Visibility: 1 mi

Pressure: 29.42 "Hg

Humidity: 94%

Dew Point: 52 °F

Location of ChelyabinskLocation

Past Weather in Chelyabinsk — Graph

°F

Chelyabinsk Temperature Yesterday

Maximum temperature yesterday: 64 °F (at 12:00 AM)
Minimum temperature yesterday: 52 °F (at 5:00 PM)
Average temperature yesterday: 57 °F

High & Low Weather Summary for the Past Weeks

 TemperatureHumidityPressure
High82 °F (Jun 21, 1:00 PM)100% (Jun 20, 4:30 AM)30.18 "Hg (Jun 20, 4:30 AM)
Low46 °F (Jun 26, 3:30 AM)24% (Jun 20, 3:00 PM)29.36 "Hg (Jun 28, 3:00 AM)
Average66 °F57%29.91 "Hg
* Reported Jun 14 4:00 AM — Jun 29 4:00 AM, Chelyabinsk, Weather by CustomWeather, © 2016

Note: Actual official high and low records may vary slightly from our data, if they occured in-between our weather recording intervals... More about our weather records

Advertising

Chelyabinsk Weather History for the Previous 24 Hours

Scroll right to see more
 ConditionsComfort  
Time TempWeatherWind HumidityBarometerVisibility
4:00 AM
Wed, Jun 29
52 °FCool.10 mph100%29.39 "Hg1 mi
3:30 AM52 °FCool.8 mph94%29.39 "Hg1 mi
3:00 AM52 °FRain showers. Passing clouds.10 mph88%29.39 "Hg1 mi
2:30 AM52 °FPassing clouds.8 mph88%29.39 "Hg4 mi
2:00 AM52 °FFog.10 mph82%29.39 "Hg4 mi
1:30 AM52 °FSprinkles. Passing clouds.10 mph82%29.39 "Hg4 mi
1:00 AM52 °FPassing clouds.10 mph82%29.42 "HgN/A
12:30 AM52 °FSprinkles. Passing clouds.10 mph82%29.42 "Hg3 mi
12:00 AM52 °FSprinkles. Passing clouds.10 mph82%29.42 "Hg4 mi
11:30 PM
Tue, Jun 28
52 °FPassing clouds.10 mph82%29.42 "HgN/A
11:00 PM52 °FPassing clouds.8 mph88%29.42 "Hg4 mi
10:30 PM52 °FRain showers. Partly sunny.8 mph88%29.42 "Hg3 mi
10:00 PM52 °FPartly sunny.10 mph88%29.42 "HgN/A
9:30 PM52 °FPartly sunny.10 mph88%29.42 "HgN/A
9:00 PM52 °FPartly sunny.13 mph88%29.42 "HgN/A
8:30 PM52 °FPartly sunny.10 mph88%29.42 "HgN/A
8:00 PM54 °FSprinkles. Partly sunny.10 mph88%29.42 "Hg1 mi
7:30 PM55 °FScattered clouds.10 mph82%29.42 "HgN/A
7:00 PM54 °FSprinkles. Scattered clouds.13 mph88%29.42 "Hg2 mi
6:30 PM55 °FScattered clouds.15 mph72%29.42 "HgN/A
6:00 PM59 °FScattered clouds.13 mph77%29.42 "HgN/A
5:30 PM57 °FScattered clouds.8 mph77%29.42 "HgN/A
5:00 PM52 °FSprinkles. Partly sunny.13 mph88%29.42 "Hg4 mi
4:30 PM54 °FSprinkles. Scattered clouds.10 mph82%29.42 "HgN/A
4:00 PM55 °FSprinkles. Scattered clouds.8 mph77%29.42 "HgN/A
3:30 PM55 °FSprinkles. Scattered clouds.8 mph72%29.42 "HgN/A
3:00 PM55 °FSprinkles. Scattered clouds.13 mph67%29.42 "HgN/A
2:30 PM59 °FScattered clouds.10 mph59%29.39 "HgN/A
2:00 PM59 °FScattered clouds.10 mph68%29.39 "HgN/A
1:30 PM59 °FScattered clouds.17 mph63%29.39 "HgN/A
1:00 PM57 °FScattered clouds.8 mph77%29.39 "HgN/A
12:30 PM55 °FScattered clouds.13 mph82%29.39 "HgN/A
12:00 PM61 °FPartly sunny.13 mph55%29.36 "HgN/A
11:30 AM61 °FScattered clouds.10 mph55%29.36 "HgN/A
11:00 AM61 °FScattered clouds.10 mph55%29.36 "HgN/A
10:30 AM61 °FScattered clouds.8 mph59%29.36 "HgN/A
10:00 AM61 °FPartly sunny.10 mph59%29.39 "HgN/A
9:30 AM61 °FPartly sunny.15 mph55%29.39 "HgN/A
9:00 AM59 °FPartly sunny.15 mph55%29.39 "HgN/A
8:30 AM61 °FScattered clouds.15 mph59%29.39 "HgN/A
8:00 AM59 °FPassing clouds.15 mph63%29.39 "HgN/A
7:30 AM59 °FPassing clouds.13 mph68%29.39 "HgN/A
7:00 AM57 °FPassing clouds.13 mph77%29.39 "HgN/A
6:30 AM57 °FPassing clouds.10 mph82%29.39 "HgN/A
6:00 AM55 °FPassing clouds.6 mph88%29.39 "HgN/A
5:30 AM55 °FPassing clouds.6 mph88%29.39 "HgN/A
5:00 AM55 °FPassing clouds.6 mph94%29.39 "HgN/A
Weather by CustomWeather, © 2016

See weather overviewHow to use our weather pages